Torna al catalogo

SITRO-AIS-48

AttivoNavigazioneSSO
NORAD 61771·PAYLOAD·🇷🇺 Russia
Questo nome del satellite non è ancora stato confermato da fonti ufficiali.

Lanciato Nov 4, 2024 da Vostochny Cosmodrome

Loading…

Prossimi Passaggi (prossime 24 ore)

TLE

AggiornatoSource: Space-Track

Epoca: Sep 14, 2026, 10:40 UTC

1 61771U 24199AN  26257.44513504  .00059558  00000-0  55404-3 0  9998
2 61771  97.2731 135.9648 0003559 338.8014  21.3099 15.67214287148367

Traccia SITRO-AIS-48 in tempo reale con AllMySat

Download on the App Store